Location: Wyoming Infrared Observatory
(41.0971°N, 105.9765°W)
Time: 03:52:51
(UTC-06:00)

Daily predictions for brighter satellites

Satellite Brightness Start Highest point End
(mag) Time Altitude Azimuth Time Altitude Azimuth Time Altitude Azimuth
Cosmos 2237 Rocket 3.1 00:08:11 47° NNW 00:08:11 47° NNW 00:12:38 10° NNE
Cosmos 2278 Rocket 3.4 00:06:00 10° NNW 00:09:39 37° WNW 00:09:39 37° WNW
NOSS 3-1 (A) 4.1 00:16:59 49° NW 00:16:59 49° NW 00:23:20 10° NNE
ATLAS 2AS CENTAUR R/B 3.7 00:20:13 42° ENE 00:20:13 42° ENE 00:25:52 10° NE
CZ-2C R/B 4.0 00:18:39 10° NNE 00:21:47 35° NNE 00:21:47 35° NNE
Cosmos 2219 Rocket 4.2 00:35:05 19° WNW 00:36:31 20° NW 00:40:39 10° N
ATLAS 3B R/B 3.2 00:47:03 10° NNW 00:53:17 51° NE 00:53:17 51° NE
Cosmos 2369 Rocket 3.6 01:03:52 10° N 01:08:01 34° NE 01:08:01 34° NE
USA 238 DEB 4.3 01:03:59 10° NNW 01:10:52 52° NE 01:11:15 51° ENE
USA 238 4.3 01:04:04 10° NNW 01:10:59 51° NE 01:11:23 51° ENE
Cosmos 1943 Rocket 3.8 01:22:54 10° N 01:27:45 28° NE 01:27:54 28° ENE
SL-16 R/B 3.7 01:28:45 29° NW 01:28:45 29° NW 01:33:00 10° N
USA 215 4.0 01:22:35 10° NE 01:26:58 43° ENE 01:26:58 43° ENE
ATLAS CENTAUR R/B 4.2 01:44:22 14° NNW 01:44:22 14° NNW 01:45:27 10° N
Cosmos 2181 Rocket 4.4 01:53:37 64° NNE 01:53:37 64° NNE 01:59:01 10° N
USA 267 4.4 01:55:24 10° E 02:01:21 39° NNE 02:07:19 10° NW
NOSS 3-4 (A) 4.3 02:09:46 42° E 02:09:46 42° E 02:14:43 10° NE
NOSS 3-4 (C) 4.3 02:09:52 42° E 02:09:52 42° E 02:14:49 10° NE
ATLAS 2AS CENTAUR R/B 3.8 02:07:36 39° WNW 02:09:21 44° NW 02:17:03 10° NNE
SL-8 Rocket 4.2 02:05:50 10° N 02:10:58 64° N 02:10:58 64° N
NOSS 3-2 (A) 4.1 02:15:58 10° NNW 02:23:30 74° NE 02:26:14 45° SE
Cosmos 1943 3.9 02:24:55 48° NNW 02:24:55 48° NNW 02:29:21 10° NNE
Aureole 1 Rocket 4.5 02:34:08 40° ENE 02:34:08 40° ENE 02:37:14 10° NNE
Lacrosse 5 rocket 4.0 02:41:40 15° E 02:41:40 15° E 02:43:06 10° E
ATLAS 3B R/B 4.3 02:38:20 10° NW 02:40:31 19° WNW 02:40:31 19° WNW
NPP 3.9 02:39:51 10° NNE 02:44:40 63° ENE 02:44:40 63° ENE
Nadezhda 3 Rocket 4.3 02:46:00 53° ESE 02:46:42 56° E 02:52:52 10° NNE
BREEZE M DEB (TANK) 4.1 02:28:03 10° WNW 02:48:11 68° SW 02:48:56 65° SSW
Resurs 1-4 Rocket 3.4 02:44:26 10° NE 02:49:04 30° E 02:49:36 30° ESE
SL-08 R/B 4.0 02:51:20 50° N 02:51:20 50° N 02:54:56 10° N
Cosmos 2369 Rocket 4.0 02:48:01 10° NW 02:49:47 19° NW 02:49:47 19° NW
CZ-2D R/B 3.1 02:54:42 10° NNE 02:59:37 37° E 03:00:15 36° ESE
RESURS DK-1 3.8 03:01:38 36° NE 03:01:38 36° NE 03:04:18 10° NE
Cosmos 1680 Rocket 3.6 03:03:31 74° NNE 03:03:31 74° NNE 03:08:18 10° NNE
CBERS-1 4.1 02:59:53 10° NNE 03:04:30 73° N 03:04:30 73° N
COSMOS 2455 2.8 03:04:11 10° NNW 03:10:14 79° ENE 03:12:09 46° SE
ADEOS 4.2 03:06:17 10° NNE 03:11:19 48° E 03:11:59 45° ESE
Cosmos 1943 Rocket 3.4 03:06:19 10° NW 03:09:23 30° WNW 03:09:23 30° WNW
USA 215 4.0 03:05:46 10° NE 03:11:54 44° NNW 03:14:19 32° WNW
Cosmos 192 4.5 03:14:33 68° E 03:14:33 68° E 03:19:13 10° NNE
SL-27 R/B 4.3 03:17:17 30° NE 03:17:17 30° NE 03:19:30 10° NNE
IRS-1D 3.9 03:13:02 10° NNE 03:18:11 58° E 03:18:54 53° SE
COSMOS 2406 3.1 03:17:44 72° SSE 03:18:14 78° ESE 03:24:00 10° NNE
Meteor 1-22 Rocket 4.2 03:17:06 10° NNW 03:22:12 64° WNW 03:22:12 64° WNW
NOSS 2-2 (E) 4.4 03:24:14 40° ESE 03:24:14 40° ESE 03:28:08 10° NE
Meteor 2-8 Rocket 4.3 03:25:13 61° S 03:26:24 88° E 03:32:35 10° N
ARIANE 5 R/B 2.7 03:24:01 10° NNE 03:29:15 69° ESE 03:30:09 57° SSE
COBE Rocket 4.4 03:26:31 10° NNE 03:31:30 57° E 03:32:34 47° SE
NOSS 3-2 (C) 4.0 03:26:05 10° NW 03:33:31 58° WSW 03:37:19 32° S
Cosmos 1821 Rocket 3.9 03:27:29 10° N 03:33:37 86° E 03:35:56 41° S
IRS-1C 4.1 03:28:35 10° N 03:33:52 63° WNW 03:34:13 61° W
Cosmos 724 4.4 03:28:22 10° NW 03:33:44 53° W 03:33:44 53° W
Cosmos 1371 Rocket 4.0 03:29:28 10° NNW 03:34:53 83° ENE 03:36:49 41° SSE
Cosmos 1825 Rocket 3.5 03:35:15 77° ESE 03:35:17 77° E 03:39:42 10° N
Cosmos 1953 2.7 03:34:26 10° N 03:38:23 58° E 03:38:39 56° E
SL-16 R/B 2.4 03:36:44 44° S 03:38:49 78° WSW 03:45:01 10° NNW
AQUA 4.5 03:38:33 10° N 03:42:48 40° WNW 03:42:48 40° WNW
Cosmos 2239 Rocket 4.3 03:37:49 10° N 03:43:59 78° W 03:46:08 43° S
USA 267 3.1 03:37:30 10° SE 03:44:03 75° SW 03:50:37 10° NW
CENTAUR R/B 3.4 03:36:22 10° NNW 03:44:15 71° NE 03:52:39 10° SE
ADEOS Rocket 3.0 03:38:25 10° NNE 03:44:29 88° WNW 03:47:00 41° SSW
GEOS 3 Rocket 3.6 03:40:34 10° NNE 03:45:52 78° NW 03:47:02 55° WSW
Cosmos 1818 3.9 03:47:39 42° S 03:49:12 58° ESE 03:54:34 10° NE
Okean O Rocket 4.3 03:48:07 10° NE 03:50:40 15° E 03:53:13 10° SE
UNKNOWN OBJECT B 3.3 03:46:53 10° NNE 03:50:50 56° E 03:51:34 48° SE
Cosmos 1535 Rocket 4.4 03:45:15 10° NNW 03:51:28 72° W 03:53:54 38° SSW
Cosmos 1656 Rocket 4.0 03:48:42 10° NW 03:53:09 41° W 03:53:09 41° W
Cosmos 1605 Rocket 4.2 03:48:02 10° N 03:54:14 67° E 04:00:19 10° SSE
ADEOS II 4.4 03:51:10 10° NE 03:54:56 20° E 03:58:40 10° SE
Cosmos 1758 3.2 03:50:51 10° N 03:54:56 77° W 03:54:56 77° W
Cosmos 1934 Rocket 3.9 03:49:16 10° N 03:55:35 83° W 03:59:23 26° S
NOSS 3-4 (A) 4.5 03:57:11 27° W 03:59:38 36° NW 04:05:37 10° NNE
NOSS 3-4 (C) 4.5 03:57:17 27° W 03:59:44 36° NW 04:05:44 10° NNE
NOSS 2-2 (D) 3.3 03:59:14 66° SSW 03:59:47 81° ESE 04:04:21 10° NE
Tiangong 1 2.2 04:04:21 36° E 04:04:21 36° E 04:06:11 10° E
UNK 4.2 04:05:30 40° W 04:05:30 40° W 04:09:29 10° NNW
Cosmos 839 Rocket 4.3 04:05:23 10° NNW 04:11:44 79° ENE 04:19:14 10° SE
Cosmos 1733 3.2 04:10:42 10° N 04:14:31 79° E 04:16:22 29° SSE
NOSS 2-2 (C) 3.5 04:17:06 46° WSW 04:18:10 66° NW 04:22:48 10° NNE
Lacrosse 5 rocket 1.6 04:17:23 42° WSW 04:18:54 72° NW 04:23:34 10° NE
USA 161 1.4 04:18:52 82° SSE 04:18:59 89° ENE 04:21:53 10° N
Cosmos 389 Rocket 2.5 04:17:21 10° N 04:21:00 82° E 04:23:01 25° SSE
Cosmos 2098 Rocket 1.9 04:19:08 10° N 04:22:06 86° E 04:22:26 67° SSE
Delta 2 Rocket 3.9 04:22:47 30° SSE 04:22:47 30° SSE 04:25:18 10° ESE
Cosmos 1271 Rocket 3.7 04:21:51 10° NNW 04:24:31 28° WNW 04:24:31 28° WNW
MOS 1 Rocket 3.1 04:21:46 10° NNE 04:26:07 84° ESE 04:28:54 23° S
Cosmos 1624 Rocket 4.4 04:22:49 10° NW 04:27:39 40° WSW 04:29:49 27° SSW
Cosmos 2278 4.1 04:22:57 10° NNW 04:28:41 68° ENE 04:34:21 10° SSE
Cosmos-2242 2.9 04:24:18 10° N 04:28:42 76° W 04:32:08 16° S
Resurs 1-4 Rocket 2.9 04:24:11 10° N 04:28:52 33° WNW 04:30:42 26° WSW
Cosmos 1758 Rocket 4.1 04:28:15 34° WSW 04:29:11 38° WNW 04:33:16 10° N
CZ-4B R/B 4.4 04:25:32 10° NNE 04:29:35 38° E 04:33:45 10° SSE
Cosmos 2369 3.9 04:30:27 10° NNW 04:36:13 77° ENE 04:41:57 10° SSE
Cosmos 921 Rocket 3.6 04:33:11 10° NW 04:37:20 36° W 04:39:02 26° SW
RESURS DK-1 4.4 04:37:33 14° WNW 04:38:39 15° NW 04:41:02 10° NNW
CZ-2D R/B 3.2 04:35:04 10° N 04:39:31 28° WNW 04:41:35 21° WSW
Meteor 2-5 Rocket 3.8 04:35:16 13° S 04:40:29 89° E 04:46:21 10° N
Cosmos 2056 Rocket 4.2 04:36:19 10° NW 04:41:01 33° W 04:43:41 21° SSW
MOS 1-B 4.3 04:37:37 10° NNE 04:43:27 81° WNW 04:48:43 13° SSW
Cosmos 2061 Rocket 4.4 04:44:03 10° N 04:50:16 67° E 04:56:25 10° SSE
COSMOS 2455 4.3 04:51:58 10° WNW 04:55:09 16° W 04:55:09 16° W
Cosmos 2082 Rocket 2.4 04:50:20 10° SSW 04:55:58 76° ESE 05:01:41 10° NNE
Cosmos 1833 Rocket 2.9 04:51:29 10° SSW 04:57:02 71° ESE 05:02:39 10° NNE
Cosmos 1980 Rocket 4.0 04:52:33 10° N 04:57:45 35° ENE 05:02:54 10° ESE
Cosmos 1727 Rocket 4.3 04:54:52 14° SSW 04:59:51 47° WNW 05:05:48 10° N
Cosmos 158 Rocket 4.2 04:55:55 10° S 05:00:50 67° ESE 05:05:57 10° NNE
DNEPR-1 R/B 3.6 04:56:43 10° NW 05:00:50 54° WSW 05:05:16 10° SSE
Cosmos 1656 3.7 04:55:45 10° NNW 05:01:13 84° ENE 05:06:38 10° SSE
CZ-2C R/B 4.3 04:59:05 10° SSE 05:03:25 58° ENE 05:07:49 10° N
Landsat 4 4.2 05:00:15 10° SSW 05:03:43 38° W 05:07:14 10° NNW
CZ-4B R/B 3.4 04:59:12 10° NNE 05:04:35 72° ESE 05:09:52 10° S
PAYLOAD B 4.4 04:59:26 10° NNE 05:05:03 81° ESE 05:10:35 10° SSW
Cosmos 1707 3.6 05:03:04 18° SW 05:05:11 30° WNW 05:08:40 10° NNW
ARIANE 5 R/B 4.3 05:04:39 10° NNW 05:07:46 16° WNW 05:10:30 11° W
Cosmos 2016 Rocket 4.3 05:04:08 10° N 05:10:24 75° E 05:16:42 10° SSE
Cosmos 1470 4.2 05:09:47 10° NW 05:12:34 19° W 05:14:26 14° WSW
Okean 3 Rocket 4.1 05:10:34 10° S 05:14:53 63° E 05:19:16 10° NNE
Cosmos 1452 Rocket 4.0 05:11:16 10° NW 05:16:06 39° WSW 05:20:56 10° S
Meteor 1-16 Rocket 4.3 05:11:58 10° NNW 05:17:07 48° W 05:22:11 10° SSW
COSMOS 2487 3.7 05:17:47 14° WSW 05:20:12 26° WNW 05:23:16 10° N
GPS 2-05 Rocket1 4.4 05:20:09 11° SW 05:22:50 24° SSE 05:25:41 10° ESE
SL-16 R/B 4.3 05:22:26 10° W 05:23:21 10° W 05:24:16 10° WNW
Cosmos 1378 4.3 05:20:56 11° SW 05:23:55 26° WNW 05:27:07 10° NNW
IRS-1C Rocket 4.1 05:20:24 10° N 05:25:39 71° WNW 05:30:53 10° SSW
Cosmos 1802 Rocket 4.1 05:19:26 10° NNW 05:25:51 71° W 05:32:11 10° S
Okean O Rocket 1.9 05:23:02 10° N 05:27:19 49° WNW 05:31:34 10° SSW
USA 267 4.4 05:23:32 10° SSW 05:27:43 18° WSW 05:31:54 10° W
CZ-3 R/B 4.0 05:19:05 10° SW 05:30:19 20° S 05:35:28 10° SE
Cosmos 1420 Rocket 4.4 05:27:47 10° NNW 05:32:48 43° WSW 05:37:45 10° S
Cosmos 1459 Rocket 4.2 05:27:36 10° NNW 05:33:32 51° W 05:39:31 10° SSW
CENTAUR R/B 3.8 05:27:53 10° NW 05:34:35 29° WSW 05:41:31 10° SSW
ADEOS II 2.4 05:29:50 10° N 05:34:55 51° WNW 05:39:59 10° SW
Cosmos 1048 Rocket 4.3 05:33:35 10° SW 05:38:33 48° WNW 05:43:31 10° N
Tiangong 1 1.6 05:36:26 10° W 05:39:02 33° SSW 05:41:37 10° SE
Cosmos 1725 Rocket 4.1 05:35:21 10° N 05:41:39 90° W 05:47:58 10° S
